Location: Coed Ely
(51.5661°N, 3.4150°W)
Time: 19:43:03
(UTC+00:00)

SL-08 RB Rocket - Pass Details

Date: 28 January 2021
Orbit: 647 x 684 km, 97.8° (Epoch: 27 February)

Event Time Altitude Azimuth Distance (km) Brightness Sun altitude
Exits shadow 18:59:18 19° 143° (SE) 1,528 5.3 -19.0°
Maximum altitude 19:02:20 57° 71° (ENE) 774 3.7 -19.5°
Drops below altitude 10° 19:06:44 10° 353° (N) 2,063 6.3 -20.2°
Sets 19:08:58 0° 350° (N) 2,977 7.2 -20.5°
